User: anonymous   Login
Location: Unspecified
(0.0000°N, 0.0000°E)
Time: 09:34:31
(UTC+00:00)
Language:

Milstar DFS 1 - Orbit

View from above orbital plane
View from above orbital plane
View from above satellite
View from above satellite

Ground track
Ground track

The orbit data is extracted from the following two-line orbital elements,

1 22988U 94009A   20058.78489215 -.00000265 +00000-0 +00000-0 0  9994
2 22988 013.9620 052.3360 0002045 261.9770 086.5107 01.00275212008560
Epoch (UTC): 27 February 2020 18:50:14
Eccentricity: 0.0002045
inclination: 13.9620°
perigee height: 35776 km
apogee height: 35794 km
right ascension of ascending node: 52.3360°
argument of perigee: 261.9770°
revolutions per day: 1.00275212
mean anomaly at epoch: 86.5107°
orbit number at epoch: 856

The dashed part of the orbit path shows where the satellite is in the earth's shadow,  

DLR